This is the latest recevied weather packets stored in our database for station/object K7TUS-6. If no packets are shown the sender has not sent any weather packets the latest 10 day(s).
| Time | Temp. | Humidity | Pressure | Rain* | Wind** | Luminosity | Snow |
|---|---|---|---|---|---|---|---|
| 1777592404 | 15.56° C | 1% | 977.7 hPa | - | - | - | - |
| 1777592104 | 15.56° C | 1% | 978.2 hPa | - | - | - | - |
| 1777591809 | 15.56° C | 1% | 978.5 hPa | - | - | - | - |
| 1777591509 | 16.67° C | 1% | 978.2 hPa | - | - | - | - |
| 1777591208 | 17.78° C | 1% | 979.1 hPa | - | - | - | - |
| 1777590907 | 19.44° C | 1% | 978.6 hPa | - | - | - | - |
| 1777590607 | 18.33° C | 1% | 978.7 hPa | - | - | - | - |
| 1777590306 | 18.33° C | 1% | 978.5 hPa | - | - | - | - |
| 1777590005 | 18.33° C | 1% | 978.7 hPa | - | - | - | - |
| 1777589405 | 17.78° C | 1% | 978.6 hPa | - | - | - | - |
| 1777589104 | 17.78° C | 1% | 978.6 hPa | - | - | - | - |
| 1777588804 | 17.78° C | 1% | 978.1 hPa | - | - | - | - |
| 1777588509 | 17.78° C | 1% | 978.3 hPa | - | - | - | - |
| 1777588208 | 18.33° C | 1% | 977.8 hPa | - | - | - | - |
| 1777587908 | 18.89° C | 1% | 978.2 hPa | - | - | - | - |
| 1777587607 | 17.78° C | 1% | 978.2 hPa | - | - | - | - |
| 1777587307 | 18.33° C | 1% | 978.6 hPa | - | - | - | - |
| 1777587006 | 18.33° C | 1% | 978.8 hPa | - | - | - | - |
| 1777586705 | 18.89° C | 1% | 979.6 hPa | - | - | - | - |
| 1777586405 | 18.33° C | 1% | 979.1 hPa | - | - | - | - |
| 1777586104 | 17.22° C | 1% | 978.6 hPa | - | - | - | - |
| 1777585504 | 16.11° C | 1% | 977.5 hPa | - | - | - | - |
| 1777585209 | 18.89° C | 1% | 978.6 hPa | - | - | - | - |
| 1777584909 | 17.78° C | 1% | 979.6 hPa | - | - | - | - |
| 1777584607 | 17.78° C | 1% | 979.6 hPa | - | - | - | - |
* Rain since midnight (hover to see other rain measurements)
** Current wind speed in m/s (hover to see current wind gust speed)